Dewpoint
51 51 50 48 49 48 47 47 50 52 53 53 53 53 54 54 54 55 54 53 54 53
51 51 50 49 48 49 49 49 53 51 51 52 53 54 54 54 55 55 54 54 54 54
51 51 51 49 48 48 48 49 52 53 52 51 52 54 54 55 55 55 56 56 55 55
53 52 51 51 49 50 51 51 51 52 52 52 53 54 54 54 55 55 55 56 56 56
55 54 52 51 51 50 51 51 50 50 51 52 51 52 54 54 54 55 55 55 56 55
55 55 54 53 53 51 51 50 50 49 50 50 51 53 53 53 54 55 55 55 55 55
54 55 55 53 53 54 53 51 50 49 49 48 49 50 54 53 53 54 55 55 55 55
53 53 55 55 54 53 54 53 53 51 49 48 48 48 51 53 54 54 54 54 53 49
54 54 55 55 56 55 55 54 53 53 51 50 50 48 47 50 53 54 53 50 44 40
54 54 54 55 55 56 56 56 55 54 53 53 51 50 49 50 53 53 50 46 40 37
55 55 55 55 54 54 55 55 56 56 55 53 47 48 48 46 43 41 38 37 36 34
54 55 55 55 55 55 55 55 54 50 48 46 40 40 41 42 38 34 33 33 33 33
54 53 54 54 54 50 50 43 40 37 37 36 36 35 36 35 33 30 29 29 30 30
54 54 52 49 45 41 38 35 33 32 32 33 33 33 33 33 31 29 27 27 27 28
Wind_Speed
20 19 19 20 17 20 22 23 18 19 22 20 20 18 17 15 16 17 17 15 21 19
22 21 20 22 16 16 17 18 16 17 19 20 20 19 17 16 18 18 18 21 21 18
25 23 21 21 19 19 18 20 19 20 19 20 19 17 17 18 22 21 17 17 19 20
26 25 23 22 24 20 17 18 19 20 20 20 19 18 18 19 18 21 19 17 18 22
24 27 28 26 25 22 23 19 20 20 19 18 18 19 20 21 19 21 21 21 19 23
25 26 28 27 26 27 24 23 23 23 23 24 20 22 21 21 20 21 21 20 20 24
27 27 26 26 26 25 26 27 27 27 26 25 24 21 20 22 23 23 23 21 23 24
27 26 25 28 28 27 27 27 27 28 26 27 26 24 22 22 21 22 22 21 14 5
26 26 26 24 26 28 29 28 29 27 29 28 26 30 34 29 22 21 24 18 10 10
29 29 29 26 25 24 25 25 29 30 27 28 29 29 32 32 21 18 13 12 12 10
31 30 28 28 28 26 25 24 22 24 24 19 7 11 12 15 13 13 12 12 13 14
25 27 28 29 28 25 23 21 16 6 11 15 12 13 21 22 19 19 18 16 16 17
22 23 23 21 21 11 14 16 16 17 16 18 17 14 14 19 22 24 22 21 22 22
19 23 19 15 14 18 20 22 21 22 18 16 16 16 18 20 21 25 23 20 18 18
Wind_Direction
173 180 180 177 173 175 177 177 185 175 183 187 189 193 197 198 211 201 199 211 235 225
181 181 182 186 186 184 180 185 179 187 184 183 191 197 196 216 215 204 208 211 223 227
189 188 186 189 193 191 192 187 185 187 193 197 198 199 198 213 217 205 207 210 218 228
189 190 190 193 198 198 192 189 188 191 197 200 203 204 208 217 213 214 220 220 219 229
189 189 194 199 198 198 198 196 202 203 206 207 211 213 214 216 217 219 222 227 224 236
192 194 196 199 201 202 198 199 204 208 209 213 211 215 216 217 219 225 223 227 225 234
198 194 196 201 202 199 202 204 205 210 214 215 217 217 213 217 220 223 227 224 228 234
204 206 202 200 203 205 205 208 207 211 213 216 220 221 216 215 216 220 228 229 222 197
198 201 203 203 201 201 206 207 213 213 214 215 219 223 225 227 227 221 224 213 170 125
196 201 205 203 204 205 203 206 209 213 210 216 222 224 220 217 214 215 202 180 160 131
194 198 199 201 206 210 208 209 210 210 210 206 186 180 175 159 127 111 102 111 116 112
194 190 193 200 202 203 204 206 203 170 151 152 122 123 135 129 115 102 90 85 87 99
192 190 192 194 188 169 158 130 116 102 102 115 115 101 110 117 120 111 102 87 80 80
191 190 177 152 134 121 115 109 103 96 85 87 101 106 114 121 118 120 109 101 97 87